Hasanuddin International Airport
WAAA : now visible

Aeroporto :











RITROVATECI SU...

 
LOGIN :

Iscrizione | Disclaimer

   EN    FR    IT 

 









Sommario :    VFR   VFR Marginale   IFR   IFR Intensivo   IFR Molto Intensivo
Visibilità : 
Base nubi : 
>= 8 km
>= 3000ft
5 / 8 km
1000 / 3000 ft
1500m / 5 km
500 / 1000 ft
800 / 1500m
200 / 500 ft
< 800m
< 200 ft
Simboli :   Temporali  Nebbia  Neve Forte  Precipitazioni Forti  Vento > 20 kt







- Altitudine del aeroporto : 47 ft
- Codice IATA : UPG


WAAA - Hasanuddin International

ULTIMO METAR :
  • 251900Z 10003KT 8000 FEW019 21/21 Q1011 NOSIG

METARs OBSOLETI :
  • 251830Z 09002KT 8000 FEW019 21/21 Q1011 NOSIG
  • 251700Z 13003KT 8000 -RA FEW019 23/20 Q1012 NOSIG
  • 251630Z VRB02KT 9000 FEW019 24/20 Q1012 NOSIG

TAF TAF WAAA
Valido dal 25 a 18 ore il 27 a 00 ore UTC


251700Z 2518/2700 20004KT 8000 FEW020
BECMG 2520/2521 9999
BECMG 2602/2604 04010KT
BECMG 2606/2608 30006KT
FIR WAAF / Asia



MetMap, La meteo Aeronautica in un colpo d'occhio ! - Copyright ORBIFLY Dicembre 2007 - Disclaimer

ORBIFLY MET'MAP TEAM :

Programmazione e sviluppo : Alexandra Zaïnal
Concezione e sviluppo : Baudouin d'Aumeries
Co-Programmazione e sviluppo : Marc-Olivier Méhu
Supporto tecnico e logistico : Manuel Goepfert
Aiuto per la traduzione : Arnaldo La Scala

Contatto : metmap@orbifly.com




FONTI E CREDITI :

   NOAA       Earth
Advisory